Regional Weather Roundup
Issued by NWS

Home | Current Version | Previous Version | Text Only | Print | Product List | Glossary Off
Versions: 1 2 3 4 5 6 7 8 9 10 11 12 13 14 15 16 17 18 19 20 21 22 23 24 25 26 27 28 29 30 31 32 33 34 35 36 37 38 39 40 41 42 43 44 45 46 47 48 49 50

643
ASUS43 KDMX 231106
RWRIA

WEATHER ROUNDUP FOR IOWA
NATIONAL WEATHER SERVICE DES MOINES IA
600 AM CDT WED AUG 23 2017

NOTE: "FAIR" INDICATES FEW OR NO CLOUDS BELOW 12,000 FEET WITH NO
SIGNIFICANT WEATHER AND/OR OBSTRUCTIONS TO VISIBILITY.

* - THESE STATIONS ARE NOT NWS STATIONS...THUS NOT UNDER NWS
QUALITY CONTROL.  THEY ALSO DO NOT REPORT WEATHER SUCH
AS PRECIPITATION OR FOG.

IAZ001>003-012>014-020>022-031>034-043>046-231200-
   NORTHWEST IOWA

CITY           SKY/WX    TMP DP  RH WIND       PRES   REMARKS
CARROLL *      PTCLDY    52  52 100 CALM      30.14S
CHEROKEE *     CLEAR     49  49 100 CALM      30.15S
DENISON *      CLEAR     50  50 100 CALM      30.17R
LE MARS *      CLEAR    106 N/A N/A CALM      30.15S
ORANGE CITY *  CLEAR     55  54  94 CALM      30.15S
SHELDON *      CLEAR     46  45  93 NE3       30.14S
SIOUX CITY     PTCLDY    52  52 100 E5        30.14F
SPENCER        CLEAR     48  46  93 CALM      30.15S
STORM LAKE *   CLEAR     55  50  82 W8        30.15S
$$

IAZ055>058-069>071-079>083-090>094-231200-
   SOUTHWEST IOWA

CITY           SKY/WX    TMP DP  RH WIND       PRES   REMARKS
ATLANTIC *     PTCLDY    50  50 100 MISG      30.16R
AUDUBON *      CLEAR     48  46  93 CALM      30.16S
CLARINDA *       N/A     50  50 100 CALM      30.18S FOG
COUNCIL BLFS * CLEAR     57  57 100 SW3       30.16S
CRESTON *      CLEAR     54  52  94 CALM      30.16S
HARLAN  *      CLEAR     50  48  93 CALM      30.19R
LAMONI         CLEAR     54  51  90 W3        30.15S
RED OAK *      CLEAR     50  50 100 CALM      30.16S
SHENANDOAH *   PTCLDY    52  50  93 CALM      30.16S
$$

IAZ047>049-059>061-072>074-084-231200-
   CENTRAL IOWA

CITY           SKY/WX    TMP DP  RH WIND       PRES   REMARKS
AMES           PTCLDY    49  49 100 SW3       30.13S
ANKENY *       PTCLDY    54  52  94 CALM      30.14S
BOONE *        CLEAR     52  50  93 W7        30.13R
CHARITON *     CLEAR     54  52  94 W6        30.13S
DES MOINES     PTCLDY    56  53  90 W3        30.12F
GRINNELL*      CLEAR     51  49  94 CALM      30.13S
KNOXVILLE *    CLEAR     52  50  93 CALM      30.12S
MARSHALLTOWN   CLEAR     50  49  96 CALM      30.11F
NEWTON *       PTCLDY    52  50  93 W5        30.13S
PELLA *        CLEAR     54  53  96 CALM      30.14S
PERRY *          N/A     50  49  98 W5        30.14S
$$

IAZ004>006-015-016-023>025-035-036-231200-
   NORTH CENTRAL IOWA

CITY           SKY/WX    TMP DP  RH WIND       PRES   REMARKS
ALGONA *       CLEAR     52  52 100 W7        30.13S
CLARION *      PTCLDY    46  46 100 CALM      30.13S
ESTHERVILLE    CLEAR     50  49  96 W8        30.13S
FORT DODGE *   PTCLDY    50  46  87 CALM      30.14S
MASON CITY     CLEAR     50  48  93 W7        30.13R
FOREST CITY *    N/A     46  46 100 CALM      30.13R
WEBSTER CITY * PTCLDY    48  48 100 W6        30.11S
IOWA FALLS *     N/A     51  49  93 W3        30.13S
$$

IAZ007>011-017>019-026>030-037>042-050>054-066-231200-
   NORTHEAST IOWA

CITY           SKY/WX    TMP DP  RH WIND       PRES   REMARKS
CEDAR RAPIDS   PTCLDY    49  48  97 W6        30.10R
CHARLES CITY * CLEAR     52  50  93 NW7       30.11R
CLINTON *      CLEAR     50  49  96 W6        30.08S
DECORAH *      PTCLDY    52  50  93 CALM      30.08R
DUBUQUE        CLEAR     50  47  89 W6        30.08S
MONTICELLO *   CLEAR     48  48 100 CALM      30.08S
OELWEIN *      CLEAR     50  50 100 W6        30.11R
WATERLOO       CLEAR     49  48  97 NW3       30.10S
$$

IAZ064-065-067-068-078-231200-
   EAST CENTRAL IOWA

CITY           SKY/WX    TMP DP  RH WIND       PRES   REMARKS
DAVENPORT      CLEAR     51  49  92 W7        30.10S
IOWA CITY        N/A     55  51  86 CALM      30.11S
MT. PLEASANT * CLEAR     55  53  94 W6        30.11S
MUSCATINE *    CLEAR     55  52  88 NW6       30.10R
QUAD CITIES    CLEAR     52  49  89 SW3       30.08S
$$

IAZ062-063-075>077-085>089-095>099-231200-
   SOUTHEAST IOWA

CITY           SKY/WX    TMP DP  RH WIND       PRES   REMARKS
BURLINGTON     CLEAR     55  53  93 NW6       30.10S
FAIRFIELD *    CLEAR     54  50  87 W7        30.11S
FORT MADISON * CLEAR     54  52  94 W3        30.12R
KEOKUK *       CLEAR     55  52  88 CALM      30.11R
OSKALOOSA *      N/A     50  50  97 NW6       30.12F
CENTERVILLE *    N/A     50  50 100 CALM      30.15S
OTTUMWA        CLEAR     53  51  93 W8        30.12S
WASHINGTON *   CLEAR     52  50  93 W6        30.12S
$$

ABBREVIATIONS USED IN REMARKS
   TC - TEMPERATURES IN CELSIUS
  WCI - WIND CHILL INDEX
   HX - HEAT INDEX
  VSB - VISIBILITY
$$





USA.gov is the U.S. government's official web portal to all federal, state and local government web resources and services.